sat.trackr.live / text

‹ back to catalog

STARLINK-4001

NORAD 52628 · 2022-052AG

PAYLOAD ACTIVE UNKNOWN

§ Identity

Operator
Country
US
Launch date
2022-05-14
Launch site
AFETR
Launch vehicle
Mass (kg)
RCS (m²)

Purposes: comms

External: N2YO · Heavens-Above · Gunter

§ Orbital elements

Epoch: 2026-09-20T04:19:48.465120Z

Period
93.79 min
Inclination
53.1589°
Eccentricity
0.0001229
Mean motion
15.35390780 rev/d
Perigee alt
458.9 km
Apogee alt
460.6 km
Semi-major
6,837.9 km
B*
5.1840e-5
RAAN
117.7531°
Arg perigee
91.1206°
Mean anomaly
268.9938°
Rev number
24,032

§ Raw data

STARLINK-40011 52628U 22052AG  26263.18042205  .00001428  00000+0  51840-4 0  99912 52628  53.1589 117.7531 0001229  91.1206 268.9938 15.35390780240321

JSON: /api/v1/satellites/52628 · /tle

For live sub-satellite position, see the globe view (requires WebGL).

§ Visibility from observer

Set your observer location to see the next 7 days of passes ≥ 10°. The values pass through the URL so the page stays shareable.

No JS? Fill the form by hand. The geolocation button needs JavaScript.